Weather History for Kotzebue, AK

Change the Weather History Date:

Friday, October 12, 2012

  Actual Average Record
Temperature  
Mean Temperature 29 °F 27 °F  
Max Temperature 32 °F 31 °F 45 °F (2009)
Min Temperature 25 °F 23 °F 2 °F (1970)
Degree Days  
Heating Degree Days 36 38  
Month to date heating degree days 350 416  
Since 1 July heating degree days 1821 1834  
Cooling Degree Days 0    
Month to date cooling degree days 0  
Year to date cooling degree days 0  
Moisture  
Dew Point 20 °F    
Average Humidity 0    
Maximum Humidity 0    
Minimum Humidity 0    
Precipitation  
Precipitation 0.00 in 0.04 in 0.29 in (1991)
Month to date precipitation 1.09 0.49  
Year to date precipitation 13.12 8.95  
Snow  
Snow 0.00 in 0.20 in 2.80 in (1991)
Month to date snowfall 0.3 1.7  
Since 1 July snowfall 0.3 2.5  
Since 1 September snowfall 0.3 2.5  
Snow Depth 0.00 in    
Sea Level Pressure  
Sea Level Pressure 29.89 in    
Wind  
Wind Speed 16 mph (North)    
Max Wind Speed 24 mph    
Max Gust Speed 28 mph    
Visibility 10 miles    
Events      
T = Trace of Precipitation, MM = Missing Value Source: NWS Daily Summary

Daily Weather History Graph

Daily Weather History Graph

Search for Another Location

Airport:

Trip Planner

Search our weather history database for the weather conditions in past years. The results will help you decide how hot, cold, wet, or windy it might be!

Date:

Astronomy

Oct. 12, 2012 Rise Set
Actual Time 9:42 AM AKDT 7:29 PM AKDT
Civil Twilight 8:48 AM AKDT 8:23 PM AKDT
Nautical Twilight 7:46 AM AKDT 9:24 PM AKDT
Astronomical Twilight 6:42 AM AKDT 10:28 PM AKDT
Moon 5:35 AM AKDT (10/12) 6:33 PM AKDT (10/12)
Length of Visible Light 11h 35m
Length of Day
9h 47m
Waning Crescent, 10% of the Moon is Illuminated
Oct 12
Waning Crescent
Oct 15
New
Oct 21
First Quarter
Oct 29
Full
Nov 6
Last Quarter

Hourly Weather History & Observations

Time (AKDT) Temp. Windchill Dew Point Humidity Pressure Visibility Wind Dir Wind Speed Gust Speed Precip Events Conditions
12:53 AM 30.9 °F 19.8 °F 23.0 °F 72% 29.95 in 10.0 mi North 16.1 mph - N/A   Overcast
1:53 AM 30.0 °F 17.5 °F 23.0 °F 75% 29.94 in 10.0 mi North 19.6 mph - N/A   Scattered Clouds
2:53 AM 28.0 °F 14.9 °F 21.9 °F 78% 29.94 in 10.0 mi North 19.6 mph - N/A   Partly Cloudy
3:53 AM 27.0 °F 12.8 °F 21.9 °F 81% 29.93 in 10.0 mi North 21.9 mph - N/A   Partly Cloudy
4:53 AM 27.0 °F 14.3 °F 21.0 °F 78% 29.93 in 10.0 mi North 17.3 mph - N/A   Partly Cloudy
5:53 AM 26.1 °F 12.7 °F 21.0 °F 81% 29.92 in 10.0 mi North 18.4 mph - N/A   Clear
6:53 AM 26.1 °F 13.6 °F 19.9 °F 78% 29.92 in 10.0 mi North 16.1 mph - N/A   Clear
7:53 AM 25.0 °F 13.1 °F 19.0 °F 78% 29.91 in 10.0 mi North 13.8 mph - N/A   Clear
8:53 AM 25.0 °F 12.6 °F 19.0 °F 78% 29.91 in 10.0 mi North 15.0 mph - N/A   Clear
9:53 AM 25.0 °F 12.2 °F 19.0 °F 78% 29.91 in 10.0 mi North 16.1 mph - N/A   Clear
10:53 AM 25.0 °F 10.6 °F 19.0 °F 78% 29.90 in 10.0 mi North 20.7 mph - N/A   Clear
11:53 AM 27.0 °F 14.3 °F 19.9 °F 75% 29.90 in 10.0 mi NNE 17.3 mph - N/A   Clear
12:53 PM 28.0 °F 16.5 °F 19.0 °F 69% 29.90 in 10.0 mi North 15.0 mph - N/A   Clear
1:53 PM 30.0 °F 19.1 °F 19.9 °F 66% 29.90 in 10.0 mi North 15.0 mph - N/A   Clear
2:53 PM 30.9 °F 20.2 °F 21.0 °F 67% 29.88 in 10.0 mi North 15.0 mph - N/A   Clear
3:53 PM 32.0 °F 20.5 °F 21.0 °F 64% 29.88 in 10.0 mi North 18.4 mph - N/A   Clear
4:53 PM 32.0 °F 20.5 °F 21.0 °F 64% 29.86 in 10.0 mi North 18.4 mph - N/A   Clear
5:53 PM 32.0 °F 20.5 °F 21.0 °F 64% 29.85 in 10.0 mi North 18.4 mph 25.3 mph N/A   Clear
6:53 PM 30.9 °F 20.2 °F 19.0 °F 61% 29.85 in 10.0 mi NNE 15.0 mph - N/A   Clear
7:53 PM 30.0 °F 20.0 °F 19.0 °F 64% 29.84 in 10.0 mi North 12.7 mph - N/A   Clear
8:53 PM 28.4 °F 16.2 °F 19.4 °F 69% 29.83 in 10.0 mi North 17.3 mph - N/A   Clear
9:53 PM 28.0 °F 17.0 °F 19.9 °F 72% 29.84 in 10.0 mi North 13.8 mph - N/A   Clear
10:53 PM 28.0 °F 17.5 °F 19.9 °F 72% 29.84 in 10.0 mi North 12.7 mph - N/A   Clear
11:53 PM 28.0 °F 18.6 °F 19.9 °F 72% 29.84 in 10.0 mi North 10.4 mph - N/A   Mostly Cloudy